Location: Goettingen
(51.5300°N, 9.9433°E)
Time: 11:50:09
(UTC+02:00)

ISS - Pass Details

Date: 21 September 2020
Orbit: 419 x 420 km, 51.6° (Epoch: 18 September)

Event Time Altitude Azimuth Distance (km) Brightness Sun altitude
Rises 20:52:06 0° 242° (WSW) 2,361 0.7 -14.9°
Reaches altitude 10° 20:54:13 10° 239° (WSW) 1,499 -0.4 -15.2°
Maximum altitude 20:57:31 56° 160° (SSE) 504 -3.6 -15.7°
Enters shadow 20:58:28 39° 104° (ESE) 647 -3.3 -15.8°
